sat.trackr.live / text

‹ back to catalog

NUSANTARA SATU

NORAD 44048 · 2019-009A

PAYLOAD ACTIVE UNKNOWN

§ Identity

Operator
Country
INDO
Launch date
2019-02-22
Launch site
AFETR
Launch vehicle
Mass (kg)
RCS (m²)

Purposes: comms

External: N2YO · Heavens-Above · Gunter

§ Orbital elements

Epoch: 2026-09-18T22:50:49.533216Z

Period
1,436.11 min
Inclination
0.0248°
Eccentricity
0.0004444
Mean motion
1.00270998 rev/d
Perigee alt
35,768.1 km
Apogee alt
35,805.6 km
Semi-major
42,165.0 km
B*
0.0000e+0
RAAN
141.3016°
Arg perigee
6.3102°
Mean anomaly
338.9851°
Rev number
2,771

§ Raw data

NUSANTARA SATU1 44048U 19009A   26261.95196219 -.00000239  00000+0  00000+0 0  99912 44048   0.0248 141.3016 0004444   6.3102 338.9851  1.00270998 27710

JSON: /api/v1/satellites/44048 · /tle

For live sub-satellite position, see the globe view (requires WebGL).

§ Visibility from observer

Set your observer location to see the next 7 days of passes ≥ 10°. The values pass through the URL so the page stays shareable.

No JS? Fill the form by hand. The geolocation button needs JavaScript.